Lid_Strength_Index
7 6 0 -0 1 1 0 1 0 -1 -1 -1 -1 -1 -1 -1 -1 -1 -1 -1 -1 -1 -2 -1 -1 -1 -1 -1 -2 -1 -1 -1 -1 -1 -1 -1 -1 -1 -1 -1 -1 -0 -1
6 4 0 -1 0 2 2 2 1 1 -0 -1 -1 -1 -1 -1 -1 -1 -1 -1 -1 -1 -1 -1 -1 -1 -1 -1 -1 -1 -1 -1 -1 -1 -1 -2 -2 -1 -1 -1 -1 -1 -1
5 4 3 0 -1 -0 2 2 2 2 1 -0 -1 -1 -1 -1 -1 -1 -1 -1 -1 -1 -1 -1 -1 -1 -1 -1 -1 -1 -1 -1 -1 -1 -1 0 0 -2 -1 -1 -1 -1 -1
7 6 3 1 0 -0 -0 1 3 3 2 1 0 -1 -1 -1 -1 -1 -1 -1 -1 -1 -1 -1 -1 -1 -1 -1 -1 -1 -1 -2 -1 -1 0 0 -0 -2 -2 -1 -1 -1 -1
8 7 4 2 1 1 1 0 0 2 3 3 2 1 -1 -1 -1 -1 -1 -1 -1 -1 -1 -1 -1 -1 -1 -1 -1 -1 -1 -1 -1 -1 1 1 1 -1 -2 -1 -1 -1 -1
9 8 5 3 2 2 2 1 1 0 2 3 3 2 1 -1 -1 -1 -1 -1 -1 -1 -1 -1 -1 -1 -1 -1 -1 -1 -1 -1 -0 2 1 0 0 -1 -2 -2 -1 -1 -1
10 9 8 4 4 3 3 2 2 2 1 2 3 4 3 2 1 -1 -1 -1 -1 -1 -1 -1 -1 -1 -1 -1 -1 -1 -1 -1 1 1 1 1 0 -2 -2 -2 -1 -1 -2
10 9 9 7 6 5 5 4 3 3 2 2 2 4 4 4 3 1 -1 -1 -1 -1 -1 -1 -1 -1 -1 -1 -1 -1 -0 0 0 1 1 1 0 -1 -2 -2 -2 -2 -2
11 11 11 10 9 8 7 6 5 4 4 3 3 3 5 5 4 3 2 -0 -1 -1 -1 -1 -1 -1 -1 -1 -1 -0 0 1 1 1 1 2 0 -2 -2 -2 -1 -2 -1
11 11 12 11 11 11 11 8 7 6 5 4 4 4 4 5 5 4 3 1 -1 -1 -1 -1 -1 -1 -1 -1 -0 0 1 1 1 1 1 2 -1 -1 -2 -1 -1 -1 -2
12 12 12 12 12 11 11 10 8 7 6 6 6 5 6 6 6 6 4 3 2 0 -1 -1 -1 -0 0 0 0 1 2 0 1 1 1 -0 -2 -2 -2 -2 -1 -1 -1
14 13 13 13 12 12 11 11 10 9 9 8 7 7 7 6 5 6 5 4 2 1 1 -0 -0 0 1 0 -0 1 -0 0 1 1 1 -1 -1 -1 -2 -2 -1 -1 -1
15 14 13 13 13 13 12 11 11 10 10 9 8 7 7 7 7 6 5 5 2 2 1 0 0 -0 0 0 0 -0 -0 1 1 1 1 0 -1 -1 -2 -2 -1 -1 -1
15 14 14 13 13 13 12 12 11 11 10 10 9 8 7 8 7 6 5 4 4 2 1 0 -0 0 0 -0 0 0 0 1 1 1 1 1 -0 -1 -2 -2 -1 -1 -1
15 15 14 13 13 12 12 12 12 11 10 10 9 7 7 7 7 6 5 4 3 4 2 0 0 0 0 0 0 1 1 1 1 1 1 3 1 -1 -2 -1 -1 -2 -2
15 15 14 13 13 12 12 12 11 11 10 9 9 8 7 7 7 6 5 4 4 3 3 1 0 0 0 0 0 1 1 1 1 1 1 1 2 -0 -1 -1 -1 -2 -2
15 14 14 13 13 13 12 12 11 11 10 10 10 8 8 7 7 6 5 5 4 3 3 1 0 0 1 0 1 2 2 2 1 1 1 1 2 2 0 -1 -1 -1 -2
15 14 13 13 13 12 12 12 11 11 11 10 9 8 8 7 6 6 5 5 4 3 2 1 1 1 1 1 2 3 4 4 3 1 1 2 2 2 2 1 -1 -1 -1
15 14 14 13 13 12 12 12 12 11 11 10 9 9 8 8 7 7 6 5 4 3 2 1 1 2 2 2 3 3 4 3 2 2 2 3 4 4 5 5 4 3 -0
15 15 14 13 13 12 12 12 11 11 11 10 10 9 8 8 8 8 7 5 4 4 3 1 1 2 4 7 8 10 9 10 10 9 8 7 8 9 9 8 7 6 5
15 15 14 14 13 13 13 13 12 12 12 10 9 8 8 8 8 7 7 6 4 4 4 2 1 2 5 5 7 9 12 13 14 13 12 12 12 12 12 12 12 10 9
16 15 15 14 13 13 12 12 12 12 10 10 10 9 7 6 5 5 5 5 5 5 4 3 1 2 4 4 6 8 11 11 13 14 14 13 14 14 14 14 14 14 13
17 16 15 14 14 13 12 12 12 11 11 11 9 8 7 5 5 4 5 4 4 3 3 3 1 2 4 4 4 6 10 10 13 15 16 16 16 16 16 15 15 16 15
17 16 16 15 15 14 13 14 14 14 14 12 10 9 8 6 5 5 5 5 4 4 4 3 2 3 3 4 3 5 7 9 10 14 15 17 17 17 18 17 17 17 17
17 18 17 16 16 14 14 14 14 14 13 11 11 10 9 6 5 6 7 6 6 6 5 5 5 4 3 4 3 6 7 9 9 10 14 17 18 18 18 18 17 17 17
18 18 17 17 16 15 15 14 14 13 13 12 12 11 9 6 6 6 7 7 7 8 7 7 6 6 5 4 4 4 7 7 9 12 14 16 15 19 19 18 18 18 18